TimeCST,TemperatureF,Dew PointF,Humidity,Sea Level PressureIn,VisibilityMPH,Wind Direction,Wind SpeedMPH,Gust SpeedMPH,PrecipitationIn,Events,Conditions,WindDirDegrees,DateUTC
12:16 AM,53.6,37.4,54,30.18,10.0,South,3.5,-,N/A,,Mostly Cloudy,170,2012-11-20 06:16:00
12:35 AM,53.6,37.4,54,30.18,10.0,South,3.5,-,N/A,,Overcast,170,2012-11-20 06:35:00
12:55 AM,53.6,39.2,58,30.18,10.0,South,3.5,-,N/A,,Overcast,170,2012-11-20 06:55:00
1:35 AM,50.0,37.4,62,30.18,10.0,Calm,Calm,-,N/A,,Mostly Cloudy,0,2012-11-20 07:35:00
1:55 AM,48.2,37.4,66,30.18,10.0,Calm,Calm,-,N/A,,Mostly Cloudy,0,2012-11-20 07:55:00
2:15 AM,51.8,37.4,58,30.17,10.0,South,3.5,-,N/A,,Overcast,170,2012-11-20 08:15:00
2:35 AM,50.0,39.2,66,30.18,10.0,Calm,Calm,-,N/A,,Overcast,0,2012-11-20 08:35:00
3:15 AM,51.8,39.2,62,30.18,10.0,Calm,Calm,-,N/A,,Overcast,0,2012-11-20 09:15:00
3:55 AM,51.8,37.4,58,30.17,10.0,Calm,Calm,-,N/A,,Scattered Clouds,0,2012-11-20 09:55:00
4:35 AM,50.0,37.4,62,30.18,10.0,SSE,3.5,-,N/A,,Overcast,150,2012-11-20 10:35:00
5:15 AM,51.8,37.4,58,30.18,10.0,South,3.5,-,N/A,,Overcast,180,2012-11-20 11:15:00
5:55 AM,51.8,37.4,58,30.18,10.0,South,3.5,-,N/A,,Overcast,180,2012-11-20 11:55:00
6:15 AM,51.8,37.4,58,30.18,10.0,South,3.5,-,N/A,,Overcast,170,2012-11-20 12:15:00
6:55 AM,51.8,37.4,58,30.18,10.0,South,3.5,-,N/A,,Overcast,170,2012-11-20 12:55:00
7:15 AM,51.8,37.4,58,30.18,10.0,Calm,Calm,-,N/A,,Overcast,0,2012-11-20 13:15:00
7:35 AM,51.8,39.2,62,30.17,10.0,South,4.6,-,N/A,,Overcast,170,2012-11-20 13:35:00
7:55 AM,53.6,39.2,58,30.18,10.0,Calm,Calm,-,N/A,,Overcast,0,2012-11-20 13:55:00
8:15 AM,53.6,39.2,58,30.18,10.0,Calm,Calm,-,N/A,,Scattered Clouds,0,2012-11-20 14:15:00
8:35 AM,55.4,41.0,58,30.18,10.0,WSW,5.8,-,N/A,,Clear,240,2012-11-20 14:35:00
9:15 AM,59.0,41.0,51,30.17,10.0,WSW,8.1,-,N/A,,Clear,250,2012-11-20 15:15:00
9:35 AM,60.8,42.8,52,30.17,10.0,West,8.1,-,N/A,,Clear,270,2012-11-20 15:35:00
9:55 AM,62.6,42.8,48,30.17,10.0,West,9.2,-,N/A,,Clear,280,2012-11-20 15:55:00
10:16 AM,62.6,42.8,48,30.17,10.0,West,9.2,-,N/A,,Clear,260,2012-11-20 16:16:00
10:35 AM,64.4,44.6,49,30.17,10.0,West,9.2,-,N/A,,Clear,270,2012-11-20 16:35:00
11:16 AM,64.4,44.6,49,30.15,10.0,WNW,6.9,-,N/A,,Clear,300,2012-11-20 17:16:00
11:35 AM,66.2,46.4,49,30.14,10.0,West,6.9,-,N/A,,Clear,280,2012-11-20 17:35:00
11:55 AM,66.2,46.4,49,30.13,10.0,West,9.2,-,N/A,,Clear,260,2012-11-20 17:55:00
12:16 PM,66.2,46.4,49,30.12,10.0,West,8.1,-,N/A,,Clear,270,2012-11-20 18:16:00
12:35 PM,66.2,46.4,49,30.11,10.0,West,9.2,-,N/A,,Clear,260,2012-11-20 18:35:00
12:55 PM,68.0,46.4,46,30.10,10.0,West,8.1,-,N/A,,Clear,280,2012-11-20 18:55:00
1:35 PM,66.2,46.4,49,30.09,10.0,West,8.1,-,N/A,,Clear,280,2012-11-20 19:35:00
1:55 PM,68.0,48.2,49,30.08,10.0,West,4.6,-,N/A,,Clear,270,2012-11-20 19:55:00
2:15 PM,69.8,48.2,46,30.08,10.0,WSW,10.4,-,N/A,,Clear,240,2012-11-20 20:15:00
2:35 PM,69.8,48.2,46,30.08,10.0,WSW,11.5,-,N/A,,Clear,240,2012-11-20 20:35:00
2:55 PM,68.0,48.2,49,30.07,10.0,SW,8.1,-,N/A,,Clear,220,2012-11-20 20:55:00
3:35 PM,68.0,48.2,49,30.08,10.0,West,10.4,-,N/A,,Clear,260,2012-11-20 21:35:00
3:55 PM,66.2,48.2,52,30.08,10.0,WSW,8.1,-,N/A,,Clear,250,2012-11-20 21:55:00
4:15 PM,66.2,48.2,52,30.08,10.0,WSW,9.2,-,N/A,,Clear,250,2012-11-20 22:15:00
4:35 PM,64.4,48.2,56,30.08,10.0,West,5.8,-,N/A,,Clear,260,2012-11-20 22:35:00
4:36 PM,64.4,48.2,56,30.08,10.0,West,5.8,-,N/A,,Clear,270,2012-11-20 22:36:00
4:55 PM,62.6,46.4,55,30.09,10.0,West,5.8,-,N/A,,Clear,270,2012-11-20 22:55:00
5:15 PM,60.8,46.4,59,30.09,10.0,WSW,4.6,-,N/A,,Clear,250,2012-11-20 23:15:00
5:36 PM,60.8,46.4,59,30.09,10.0,WSW,3.5,-,N/A,,Clear,250,2012-11-20 23:36:00
5:55 PM,60.8,46.4,59,30.10,10.0,West,4.6,-,N/A,,Clear,260,2012-11-20 23:55:00
6:15 PM,59.0,44.6,59,30.11,10.0,Calm,Calm,-,N/A,,Clear,0,2012-11-21 00:15:00
6:36 PM,59.0,46.4,63,30.11,10.0,Calm,Calm,-,N/A,,Clear,0,2012-11-21 00:36:00
6:55 PM,57.2,44.6,63,30.11,10.0,Calm,Calm,-,N/A,,Clear,0,2012-11-21 00:55:00
7:15 PM,55.4,44.6,67,30.12,10.0,Calm,Calm,-,N/A,,Clear,0,2012-11-21 01:15:00
7:55 PM,53.6,44.6,72,30.12,10.0,Calm,Calm,-,N/A,,Clear,0,2012-11-21 01:55:00
8:15 PM,55.4,44.6,67,30.12,10.0,Calm,Calm,-,N/A,,Clear,0,2012-11-21 02:15:00
8:35 PM,53.6,44.6,72,30.12,10.0,Calm,Calm,-,N/A,,Clear,0,2012-11-21 02:35:00
8:55 PM,53.6,44.6,72,30.13,10.0,Calm,Calm,-,N/A,,Mostly Cloudy,0,2012-11-21 02:55:00
9:15 PM,55.4,44.6,67,30.14,10.0,North,6.9,-,N/A,,Mostly Cloudy,360,2012-11-21 03:15:00
9:35 PM,51.8,42.8,71,30.14,10.0,North,6.9,-,N/A,,Partly Cloudy,360,2012-11-21 03:35:00
10:15 PM,55.4,42.8,63,30.15,10.0,NNE,9.2,-,N/A,,Clear,20,2012-11-21 04:15:00
11:15 PM,53.6,41.0,62,30.16,10.0,North,5.8,-,N/A,,Clear,10,2012-11-21 05:15:00
11:35 PM,53.6,41.0,62,30.17,10.0,North,8.1,-,N/A,,Clear,360,2012-11-21 05:35:00
11:55 PM,53.6,41.0,62,30.17,10.0,North,8.1,-,N/A,,Clear,10,2012-11-21 05:55:00